www.pogodaiklimat.ru
ПОГОДА в Глубинном

Архив погоды в Глубинном (Приморский край, Россия)

Время
(UTC), дата
00 6.08
03 6.08
06 6.08
09 6.08
12 6.08
15 6.08
18 6.08
21 6.08
00 7.08
03 7.08
06 7.08
09 7.08
12 7.08
15 7.08
18 7.08
21 7.08
00 8.08
03 8.08
06 8.08
09 8.08
12 8.08
15 8.08
18 8.08
21 8.08
00 9.08
03 9.08
06 9.08
09 9.08
12 9.08
15 9.08
18 9.08
21 9.08
00 10.08
03 10.08
06 10.08
09 10.08
12 10.08
15 10.08
18 10.08
21 10.08
00 11.08
03 11.08
06 11.08
09 11.08
12 11.08
15 11.08
18 11.08
21 11.08
00 12.08
03 12.08
06 12.08
09 12.08
12 12.08
15 12.08
18 12.08
Ветер
(напр.,м/с)
Видим. Явления Облачность Т
(С)
Тd
(С)
f
(%)
Тe
(С)
Тes
(С)
Комфортность P
(гПа)
Po
(гПа)
Тmin
(С)
Tmax
(С)
R
(мм)
R24
(мм)
S
(см)
штиль 0 10 км 10/10 600 м
[Cb cap]
+23.1 +20.4 85 +30 +30 очень
душно
1003.7 980.0
ЮЗ 1 10 км 9 баллов +27.7 +21.0 67 +35 +37 очень
душно
1002.0 978.7
ЮЗ 1 10 км 7 баллов +29.8 +21.2 60 +37 +41 очень
душно
1001.9 978.7
З 1 10 км 4/1 600 м
[Sc Ci fib]
+29.0 +21.2 63 +37 +37 очень
душно
1003.3 980.0 +30.8
штиль 0 10 км ясно +20.5 +19.5 94 +24 +24 комфорт 1005.3 981.3
штиль 0 10 км ясно +18.2 +17.4 95 +19 +19 1005.5 981.3
штиль 0 2000 м туман на расстоянии ясно +18.8 +18.0 95 +20 +20 1006.9 982.7
штиль 0 10 км ясно +18.6 +17.9 96 +20 +21 1006.9 982.7 +18.0
СВ 1 10 км 8/0
[Ci fib]
+25.9 +20.9 74 +32 +36 очень
душно
1006.3 982.7
ЮЗ 1 10 км 10/0
[Ci sp]
+30.0 +18.7 51 +35 +35 очень
душно
1003.2 980.0
штиль 0 10 км 10/0
[Ac As Ci ing]
+30.7 +18.7 49 +36 +44 очень
душно
1003.2 980.0
штиль 0 10 км 10 баллов +25.0 +22.3 85 1002.2 978.7 +31.5
ЮВ 1 10 км 10 баллов +22.0 +20.6 92 +28 +28 душно 1003.8 980.0
С 1 10 км {ливн. дождь} 10/10 600 м
[Cb cap]
+21.1 +19.9 93 +26 +26 душно 1001.1 977.3
штиль 0 10 км в посл. час ливневой дождь 10/10 600 м
[Cb cap]
+20.7 +19.7 94 +25 +25 комфорт 998.5 974.7
штиль 0 10 км слаб. ливневой дождь 10/10 600 м
[Cb cap]
+20.6 +19.8 95 +25 +25 комфорт 998.5 974.7 +20.5 11
З 1 10 км {ливн. дождь} 9/9 600 м
[Cb cap]
+23.3 +21.2 88 +31 +32 очень
душно
998.3 974.7
З 2 10 км в посл. час ливневой дождь 8/8 300 м
[Cb cap]
+23.9 +21.0 84 +30 +35 очень
душно
998.2 974.7
ЮЗ 3 10 км {ливн. дождь} 6/6 600 м
[Cb cap]
+26.5 +20.1 68 +33 +36 очень
душно
996.6 973.3
З 2 10 км 6/6 600 м
[Cb cap]
+24.7 +19.1 71 +30 +30 очень
душно
998.2 974.7 +27.4 0.9
штиль 0 10 км 3/3 600 м
[Sc]
+16.2 +15.4 95 +16 +16 1001.6 977.3
штиль 0 10 км 3/3 600 м
[Sc]
+13.8 +13.2 96 +13 +13 1003.3 978.7
штиль 0 500 м туман ?/? +14.3 +14.3 100 +14 +14 1003.2 978.7
штиль 0 200 м туман ?/? +13.8 +13.8 100 +13 +13 1004.6 980.0 +13.5
ЮЗ 2 10 км {туман} 1/1 600 м
[Cu med, cong]
+20.1 +14.2 69 +23 +32 комфорт 1004.1 980.0
ЮЗ 3 10 км 3/3 600 м
[Cu med, cong]
+24.1 +11.4 45 +26 +36 жарко 1002.4 978.7
З 2 10 км 8/8 600 м
[Cu med, cong]
+23.8 +11.8 47 +25 +28 комфорт 1001.0 977.3
З 1 10 км 3/3 600 м
[Cu med, cong]
+23.4 +12.4 50 +26 +27 жарко 1001.0 977.3 +25.3
штиль 0 10 км 3/3 600 м
[Sc]
+14.4 +13.6 95 +14 +14 1001.8 977.3
штиль 0
{10}
10 км 8/8 600 м
[Cb cap]
+15.3 +14.0 92 +15 +15 1003.1 978.7
штиль 0 10 км 8/3 600 м
[Sc Ci fib]
+12.3 +11.5 95 +12 +12 1003.4 978.7
штиль 0 500 м туман ясно +13.4 +12.8 96 +13 +14 1003.3 978.7 +12.1
штиль 0 10 км {туман} ясно +21.7 +15.1 66 +25 +38 комфорт 1001.2 977.3
ЮЗ 2 10 км 3/3 600 м
[Cu hum]
+25.9 +13.4 46 +28 +41 жарко 1000.8 977.3
ЮЗ 1 10 км 4/4 600 м
[Cu med, cong]
+26.2 +12.6 43 +28 +35 жарко 999.5 976.0
штиль 0 10 км 8/3 600 м
[Cb cap Ci sp]
+21.5 +17.5 78 +26 +26 душно 998.5 974.7 +27.3
ЮВ 1
{11}
4000 м сильн. гроза, ливневой дождь 10/10 600 м
[Cb cap]
+15.4 +14.6 95 +16 +16 1003.1 978.7
штиль 0 10 км {гроза, ливн. дождь} 6/3 600 м
[Sc Ac trans]
+14.3 +13.7 96 +14 +14 1003.2 978.7
штиль 0 500 м туман {гроза} ?/? +14.0 +14.0 100 +13 +13 1002.5 978.4
штиль 0 500 м туман ?/? +13.8 +13.2 96 +13 +13 1003.3 978.7 +13.4 12
штиль 0 2000 м слаб. ливневой дождь {туман} 10/10 600 м
[Cb cap]
+15.8 +15.2 96 +16 +16 1003.1 978.7
штиль 0 10 км {ливн. дождь} 8/3 600 м
[Cu med, cong Ac cast]
+23.4 +17.8 71 +29 +37 душно 1002.4 978.7
В 1 10 км {ливн. дождь} 6/4 600 м
[Cu med, cong Ac As]
+26.0 +16.5 56 +30 +34 душно 999.5 976.0
В 1 10 км гроза без осадков 10/10 600 м
[Cb cap]
+19.9 +16.9 83 +24 +24 комфорт 1000.0 976.0 +26.7 0.0
ЮЗ 1 10 км в посл. час гроза {ливн. дождь} 9/5 600 м
[Cb cap Ac As]
+16.7 +15.7 94 +18 +18 1001.6 977.3
штиль 0 10 км {ливн. дождь} 10/10 600 м
[Cb cap]
+16.6 +15.8 95 +16 +16 1001.6 977.3
штиль 0 10 км {ливн. дождь} 10/10 600 м
[Sc]
+16.3 +15.7 96 +16 +16 1000.3 976.0
штиль 0 10 км 7 баллов +17.2 +16.6 96 1001.5 977.3 +16.0 6
ЮЗ 2 10 км 9 баллов +20.6 +16.8 79 +25 +26 комфорт 1002.7 978.7
З 2 10 км 9 баллов +23.8 +15.3 59 +27 +28 жарко 1001.0 977.3
З 2 10 км 9 баллов +23.8 +14.8 57 +27 +27 жарко 1002.4 978.7
З 2 10 км 9 баллов +22.2 +14.8 63 +26 +26 душно 1003.9 980.0 +24.5
штиль 0 10 км 2 балла +14.9 +14.1 95 1005.8 981.3
штиль 0 10 км 2 балла +14.2 +13.6 96 1007.3 982.7
СВ 1 1000 м 2 балла +14.4 +13.8 96 +15 +15 1007.3 982.7
Местоположение метеостанции Глубинное (Приморский край, Россия): широта 46.07 долгота 135.30 высота над уровнем моря 210 м.
В архиве по умолчанию представлена погода в Глубинном за последнюю неделю. Архивные данные за месяц целиком и за предыдущие месяцы, начиная с января 2011 года, Вы можете получить, выбрав интересующий диапазон дат из раскрывающегося списка и нажав кнопку "Найти!".
*Определитесь, кто Вы:
Внимание! Время в таблицах - всемирное. Для получения местного времени необходимо прибавить поправку, которая равна 10 ч.
Смотрите также архив погоды в соседних городах и на ближайших метеорологических станциях:
Партнеры нашего сайта:      
Пояснения к столбцам:
  • Ветер - указаны скорость ветра в м/с - средняя за 10 мин, порывы в срок и между сроками (в фигурных скобках) и направление, откуда дует ветер: С - северный,
  • СВ - северо-восточный, В - восточный, ЮВ - юго-восточный, Ю - южный, ЮЗ - юго-западный, З - западный, СЗ - северо-западный.
  • Видимость - горизонтальная дальность видимости в метрах или километрах. При видимости от 1 до 10 км при отсутствии осадков обычно наблюдается дымка, при ухудшении видимости до 1 км и менее - туман. В сухую погоду видимость может ухудшаться дымом, пылью или мглою.
  • Явления - указаны атмосферные явления, наблюдавшиеся в срок или в последний час перед сроком; фигурными скобками обозначены явления, наблюдавшиеся между сроками (за 1-3 часа до срока); квадратными скобками обозначены град или гололедные отложения с указанием их диаметра в мм.
  • Облачность - указаны через наклонную черту общая и нижняя облачность в баллах и высота нижней границы облаков в метрах; квадратными скобками обозначены формы облаков: Ci - перистые, Cs - перисто-слоистые, Cc - перисто-кучевые, Ac - высококучевые, As - высокослоистые, Sc - слоисто-кучевые, Ns - слоисто-дождевые, Cu - кучевые, Cb - кучево-дождевые. Подробнее классификацию облаков см. в Атласе облаков (PDF).
  • T - Температура воздуха - температура, измеренная на высоте 2 м над землей.
  • Td - Температура точки росы - температура, при понижении до которой содержащийся в воздухе водяной пар достигнет насыщения.
  • f - Относительная влажность воздуха - влажноcть воздуха, измеренная на высоте 2 м над землей.
  • Te - Эффективная температура - температура, которую ощущает одетый по сезону человек в тени. Характеристика душности погоды. При расчете учитывается влияние влажности воздуха и скорости ветра на теплоощущения человека.
  • Tes - Эффективная температура на солнце - температура, которую ощущает человек, с поправкой на солнечный нагрев. Характеристика знойности погоды. Зависит от высоты солнца над горизонтом, облачности и скорости ветра. Ночью, в пасмурную погоду, а также при ветре 12 м/с и более поправка равна нулю.
  • P - Атмосферное давление - приведенное к уровню моря атмосферное давление.
  • Po - Атмосферное давление - измеренное на уровне метеостанции атмосферное давление.
  • Tmin - Минимальная температура - минимум температуры воздуха на высоте 2 м над землей.
  • Tmax - Максимальная температура - максимум температуры воздуха на высоте 2 м над землей.
  • R - Количество осадков - Количество выпавших осадков за период времени, мм. При наведении курсора мыши на число - период времени, за который выпало указанное количество осадков.
  • R24 - Количество осадков - Количество выпавших осадков за 24 часа, мм.
  • S - Снежный покров - Высота снежного покрова, см. При наведении курсора мыши на число - состояние снежного покрова и степень покрытия местности в баллах.